This is the latest recevied weather packets stored in our database for station/object W4KAB. If no packets are shown the sender has not sent any weather packets the latest 10 day(s).
| Time | Temp. | Humidity | Pressure | Rain* | Wind** | Luminosity | Snow |
|---|---|---|---|---|---|---|---|
| 1777466210 | 14.44° C | 99% | 1015.5 hPa | 0 mm | - | 13 W/m² | - |
| 1777465603 | 14.44° C | 99% | 1015.5 hPa | 0 mm | - | 9 W/m² | - |
| 1777465298 | 14.44° C | 99% | 1015.6 hPa | 0 mm | - | 10 W/m² | - |
| 1777464993 | 14.44° C | 99% | 1015.3 hPa | 0 mm | - | 13 W/m² | - |
| 1777464688 | 14.44° C | 99% | 1015 hPa | 0 mm | - | 12 W/m² | - |
| 1777464385 | 14.44° C | 99% | 1015.4 hPa | 0 mm | - | 9 W/m² | - |
| 1777463166 | 13.89° C | 99% | 1015.2 hPa | 0 mm | - | 8 W/m² | - |
| 1777462557 | 13.89° C | 99% | 1014.8 hPa | 0 mm | - | 13 W/m² | - |
| 1777461950 | 13.89° C | 99% | 1014.6 hPa | 0 mm | - | 11 W/m² | - |
| 1777461647 | 13.89° C | 99% | 1014.6 hPa | 0 mm | - | 7 W/m² | - |
| 1777461342 | 13.89° C | 99% | 1014.9 hPa | 0 mm | - | 5 W/m² | - |
| 1777460734 | 13.33° C | 99% | 1015.2 hPa | 0 mm | - | 4 W/m² | - |
| 1777458915 | 13.89° C | 99% | 1015.7 hPa | 0 mm | - | 0 W/m² | - |
| 1777458004 | 13.89° C | 99% | 1015.8 hPa | 0 mm | - | 0 W/m² | - |
| 1777457700 | 13.33° C | 99% | 1015.9 hPa | 0 mm | - | 0 W/m² | - |
| 1777457400 | 13.33° C | 99% | 1015.6 hPa | 0 mm | - | 0 W/m² | - |
| 1777456792 | 13.33° C | 99% | 1015.9 hPa | 0 mm | - | 0 W/m² | - |
| 1777455580 | 13.33° C | 99% | 1015.5 hPa | 0 mm | - | 0 W/m² | - |
| 1777455277 | 13.33° C | 99% | 1015.8 hPa | 0 mm | - | 0 W/m² | - |
| 1777454973 | 12.78° C | 99% | 1015.7 hPa | 0 mm | - | 0 W/m² | - |
| 1777454671 | 12.78° C | 99% | 1015.9 hPa | 0 mm | - | 0 W/m² | - |
| 1777454366 | 12.78° C | 99% | 1015.8 hPa | 0 mm | - | 0 W/m² | - |
| 1777454063 | 12.78° C | 99% | 1015.6 hPa | 0 mm | - | 0 W/m² | - |
| 1777453760 | 12.78° C | 99% | 1015.7 hPa | 0 mm | - | 0 W/m² | - |
| 1777453458 | 12.78° C | 99% | 1015.7 hPa | 0 mm | - | 0 W/m² | - |
* Rain latest hour (hover to see other rain measurements)
** Current wind speed in m/s (hover to see current wind gust speed)